Flag for Australia Weather past 2 weeks in Albury, New South Wales, Australia

Now
46 °F

Sunny.


Feels Like: 45 °F
Forecast: 31 / 53 °F
Wind: 3 mph from East

Location: Albury Airport

Current Time: Jun 2, 2015 at 11:34:05 AM

Latest Report: Jun 2, 2015 at 11:00 AM


Visibility: N/A

Pressure: 30.33 "Hg

Humidity: 66%

Dew point: 36 °F

Location of AlburyLocation

Historic Weather in Albury — Graph

°F

Albury temperature yesterday

Maximum temperature yesterday: 52 °F (at 2:00 PM)
Minimum temperature yesterday: 39 °F (at 7:00 AM)
Average temperature yesterday: 45 °F

Past Weeks' High & Low Weather Summary

 TemperatureHumidityPressure
High66 °F (May 18, 3:00 PM)100% (May 19, 9:00 AM)30.51 "Hg (May 19, 9:00 AM)
Low30 °F (Jun 2, 6:00 AM)46% (May 18, 2:00 PM)29.80 "Hg (May 19, 2:00 PM)
Average50 °F83%30.20 "Hg
* Reported May 18 10:00 AM — Jun 2 10:00 AM, Albury, Weather by CustomWeather, © 2015

Note: Actual official high and low records may vary slightly from our data, if they occured in-between our weather recording intervals... More about our weather records

Advertising

Albury weather history for previous 24 hours

 ConditionsComfort  
Time TempWeatherWind HumidityBarometerVisibility
10:00 AM
Tue, Jun 2
41 °FSunny.3 mph76%30.36 "HgN/A
9:00 AM37 °FSunny.2 mph87%30.33 "HgN/A
8:00 AM32 °FSunny.No wind100%30.33 "HgN/A
7:00 AM30 °FSunny.No wind93%30.30 "HgN/A
6:00 AM30 °FClear.3 mph100%30.30 "HgN/A
5:00 AM32 °FClear.2 mph93%30.30 "HgN/A
4:00 AM32 °FClear.No wind93%30.27 "HgN/A
3:00 AM34 °FClear.No wind93%30.30 "HgN/A
2:00 AM34 °FClear.1 mph87%30.27 "HgN/A
1:00 AM34 °FClear.1 mph87%30.27 "HgN/A
12:00 AM36 °FClear.5 mph87%30.27 "HgN/A
11:00 PM
Mon, Jun 1
41 °FClear.5 mph70%30.27 "HgN/A
10:00 PM41 °FClear.3 mph76%30.27 "HgN/A
9:00 PM41 °FClear.3 mph76%30.24 "HgN/A
8:00 PM43 °FClear.8 mph71%30.24 "HgN/A
7:00 PM43 °FClear.8 mph71%30.21 "HgN/A
6:00 PM45 °FClear.8 mph66%30.21 "HgN/A
5:00 PM48 °FClear.10 mph58%30.18 "HgN/A
4:00 PM50 °FSunny.10 mph54%30.18 "HgN/A
3:00 PM52 °FBroken clouds.14 mph50%30.18 "HgN/A
2:00 PM52 °FScattered clouds.13 mph54%30.15 "HgN/A
1:00 PM50 °FScattered clouds.12 mph54%30.18 "HgN/A
12:00 PM50 °FScattered clouds.12 mph58%30.18 "HgN/A
11:00 AM48 °FSunny.10 mph62%30.18 "HgN/A
Weather by CustomWeather, © 2015

See weather overviewHow to use our weather pages